User: anonymous   Login
Location: Pine Mountain Observatory
(43.7910°N, 120.9377°W)
Time: 22:17:19
(UTC-07:00)
Language:

Meteor 2-19 Rocket - Orbit

View from above orbital plane
View from above orbital plane
View from above satellite
View from above satellite

Ground track
Ground track

The orbit data is extracted from the following two-line orbital elements,

1 20671U 90057B   18109.61604238  .00000007  00000-0 -73417-5 0  9991
2 20671  82.5440 128.5515 0015388 171.2474 188.8958 13.84613343405472
Epoch (UTC): 19 April 2018 14:47:06
Eccentricity: 0.0015388
inclination: 82.5440°
perigee height: 936 km
apogee height: 959 km
right ascension of ascending node: 128.5515°
argument of perigee: 171.2474°
revolutions per day: 13.84613343
mean anomaly at epoch: 188.8958°
orbit number at epoch: 40547

The dashed part of the orbit path shows where the satellite is in the earth's shadow,  

DLR